Stations météo

réclame
Mon MeteoGroup
Ponferrada, Espagne (8053): Température de l'air & dewpoint: 11.12.2018 01:00:00 - 17.12.2018 01:00:00 (CET)Ponferrada, Espagne (8053): Vitesse du vent: 11.12.2018 01:00:00 - 17.12.2018 01:00:00 (CET)Ponferrada, Espagne (8053): Direction du vent: 11.12.2018 01:00:00 - 17.12.2018 01:00:00 (CET)Ponferrada, Espagne (8053): reduced air pressure: 11.12.2018 01:00:00 - 17.12.2018 01:00:00 (CET)Ponferrada, Espagne (8053): visibility: 11.12.2018 01:00:00 - 17.12.2018 01:00:00 (CET)Ponferrada, Espagne (8053): Quantités de précipitations: 11.12.2018 01:00:00 - 17.12.2018 01:00:00 (CET)
Date & Time tt [°C] td [°C] ff [km/h] ff [knt] dd ppp [hPa] vv [km] rr [mm]
17.12.2018 01:00:00 4,9 3,9 4 2 NW 1028,7 20 -
17.12.2018 00:00:00 5,4 4,0 2 1 NE 1028,4 20 0,0
16.12.2018 23:00:00 5,9 4,2 2 1 NW 1028,1 14 0,2
16.12.2018 22:00:00 5,0 4,0 2 1 E 1027,6 20 -
16.12.2018 21:00:00 5,7 3,5 2 1 NNE 1027,0 20 0,0
16.12.2018 20:00:00 6,1 3,4 5 3 W 1026,0 20 0,0
16.12.2018 19:00:00 5,8 3,6 2 1 N 1025,3 20 -
16.12.2018 18:00:00 7,2 3,6 8 4 W 1023,9 20 0,0
16.12.2018 17:00:00 7,7 4,6 8 4 W 1022,9 20 0,0
16.12.2018 16:00:00 7,4 5,0 8 4 WNW 1021,9 19 -
16.12.2018 15:00:00 7,1 5,4 4 2 SSE 1020,8 15 1,0
16.12.2018 14:00:00 8,5 5,2 15 8 W 1020,0 18 0,0
16.12.2018 13:00:00 7,4 5,5 8 4 WSW 1020,4 20 -
16.12.2018 12:00:00 7,4 5,0 15 8 W 1020,3 11 0,6
16.12.2018 11:00:00 8,2 6,0 8 4 WNW 1018,9 19 0,2
16.12.2018 10:00:00 6,7 6,3 2 1 NNE 1017,6 20 -
16.12.2018 09:00:00 6,5 5,8 4 2 E 1017,2 9 0,0
16.12.2018 08:00:00 8,9 6,9 4 2 WNW 1016,5 20 0,0
16.12.2018 07:00:00 8,8 8,2 2 1 NE 1016,4 18 -
16.12.2018 06:00:00 10,1 9,2 2 1 NNW 1016,0 20 0,0
16.12.2018 05:00:00 10,2 9,9 2 1 SE 1016,2 16 0,0
16.12.2018 04:00:00 10,5 10,0 4 2 ESE 1016,6 20 -
16.12.2018 03:00:00 10,4 10,1 2 1 SE 1016,8 18 0,0
16.12.2018 02:00:00 10,6 10,3 4 2 E 1017,4 3,7 1,0
16.12.2018 01:00:00 10,6 10,3 2 1 ENE 1017,8 4,4 -
16.12.2018 00:00:00 10,5 10,0 2 1 WSW 1018,8 2,7 2,0
15.12.2018 23:00:00 10,6 10,1 2 1 SE 1018,5 4,5 0,6
15.12.2018 22:00:00 10,7 10,1 2 1 SSW 1018,8 9 -
15.12.2018 21:00:00 10,9 10,1 2 1 W 1019,2 6 0,2
15.12.2018 20:00:00 11,1 10,0 2 1 SSW 1019,5 10 1,0
15.12.2018 19:00:00 11,8 9,7 4 2 E 1019,1 18 -
15.12.2018 18:00:00 11,7 9,8 4 2 NNE 1019,2 17 1,0
15.12.2018 17:00:00 13,0 9,4 8 4 WNW 1020,3 12 0,0
15.12.2018 16:00:00 13,3 9,2 2 1 SSE 1019,9 20 -
15.12.2018 15:00:00 13,2 9,6 5 3 N 1020,0 18 0,0
15.12.2018 14:00:00 12,9 9,5 4 2 N 1020,3 20 0,0
15.12.2018 13:00:00 11,3 9,6 4 2 S 1021,7 17 -
15.12.2018 12:00:00 10,4 9,0 2 1 W 1023,8 15 0,0
15.12.2018 11:00:00 8,0 7,7 4 2 E 1024,8 4,9 0,0
15.12.2018 10:00:00 7,4 7,3 2 1 W 1024,3 5 -
15.12.2018 09:00:00 7,2 7,1 2 1 NW 1024,5 2,2 0,2
15.12.2018 08:00:00 7,2 6,9 2 1 N 1024,4 2,2 0,0
15.12.2018 07:00:00 7,3 7,0 2 1 ESE 1024,4 11 -
15.12.2018 06:00:00 7,2 6,9 4 2 W 1024,7 17 0,4
15.12.2018 05:00:00 7,2 6,9 2 1 E 1025,1 2,6 0,8
15.12.2018 04:00:00 7,2 6,9 2 1 NNW 1025,4 - -
15.12.2018 03:00:00 7,2 6,9 4 2 WNW 1025,8 1,6 1,0
15.12.2018 02:00:00 7,2 6,8 2 1 ENE 1025,4 2,6 0,2
15.12.2018 01:00:00 7,2 6,8 2 1 WNW 1026,2 2,2 -
15.12.2018 00:00:00 7,2 6,6 2 1 E 1025,7 5 0,0
14.12.2018 23:00:00 7,4 6,8 4 2 SSE 1026,0 3,1 0,4
14.12.2018 22:00:00 7,4 6,8 2 1 S 1026,3 4,0 -
14.12.2018 21:00:00 7,5 6,6 2 1 NNW 1026,5 - 0,4
14.12.2018 20:00:00 7,8 6,6 2 1 ESE 1026,5 - 1,0
14.12.2018 19:00:00 8,4 5,9 0 0 N 1026,0 10 -
14.12.2018 18:00:00 8,7 5,4 5 3 NW 1025,4 20 0,0
14.12.2018 17:00:00 9,1 5,1 8 4 W 1025,1 20 0,0
14.12.2018 16:00:00 9,2 5,4 8 4 W 1025,0 20 -
14.12.2018 15:00:00 9,3 5,1 5 3 W 1024,7 20 0,0
14.12.2018 14:00:00 8,9 4,5 8 4 W 1025,2 15 0,0
14.12.2018 13:00:00 8,3 4,7 8 4 WNW 1025,9 17 -
14.12.2018 12:00:00 8,0 4,6 8 4 W 1026,4 20 0,0
14.12.2018 11:00:00 7,2 4,8 5 3 W 1026,0 20 0,0
14.12.2018 10:00:00 6,6 4,3 8 4 WNW 1025,3 19 -
14.12.2018 09:00:00 6,1 3,6 8 4 W 1024,0 20 0,0
14.12.2018 08:00:00 5,6 3,8 4 2 NNW 1024,3 20 0,0
14.12.2018 07:00:00 6,0 3,8 2 1 NNW 1023,2 20 -
14.12.2018 06:00:00 5,8 4,0 4 2 NW 1023,3 20 0,0
14.12.2018 05:00:00 6,0 4,2 8 4 WNW 1023,1 20 0,0
14.12.2018 04:00:00 6,0 3,8 8 4 W 1022,3 20 -
14.12.2018 03:00:00 6,1 3,9 11 6 W 1021,6 20 0,0
14.12.2018 02:00:00 6,2 3,4 5 3 W 1021,3 20 0,0
14.12.2018 01:00:00 6,3 3,5 8 4 W 1021,5 19 -
14.12.2018 00:00:00 6,3 3,3 5 3 W 1021,0 20 0,0
13.12.2018 23:00:00 6,4 3,2 5 3 W 1020,3 20 0,0
13.12.2018 22:00:00 6,1 3,4 8 4 W 1020,1 20 -
13.12.2018 21:00:00 6,0 3,3 8 4 W 1019,7 20 0,0
13.12.2018 20:00:00 - - - - - - - -
13.12.2018 19:00:00 - - - - - - - -
13.12.2018 18:00:00 - - - - - - - -
13.12.2018 17:00:00 - - - - - - - -
13.12.2018 16:00:00 - - - - - - - -
13.12.2018 15:00:00 - - - - - - - -
13.12.2018 14:00:00 - - - - - - - -
13.12.2018 13:00:00 - - - - - - - -
13.12.2018 12:00:00 - - - - - - - -
13.12.2018 11:00:00 - - - - - - - -
13.12.2018 10:00:00 - - - - - - - -
13.12.2018 09:00:00 - - - - - - - -
13.12.2018 08:00:00 - - - - - - - -
13.12.2018 07:00:00 - - - - - - - -
13.12.2018 06:00:00 - - - - - - - -
13.12.2018 05:00:00 - - - - - - - -
13.12.2018 04:00:00 - - - - - - - -
13.12.2018 03:00:00 - - - - - - - -
13.12.2018 02:00:00 - - - - - - - -
13.12.2018 01:00:00 - - - - - - - -
13.12.2018 00:00:00 - - - - - - - -
12.12.2018 23:00:00 - - - - - - - -
12.12.2018 22:00:00 - - - - - - - -
12.12.2018 21:00:00 - - - - - - - -
12.12.2018 20:00:00 8,1 5,7 4 2 WNW 1016,2 9 0,0
12.12.2018 19:00:00 7,4 5,5 4 2 WSW 1017,8 12 -
12.12.2018 18:00:00 7,2 5,3 4 2 SSW 1018,5 8 0,0
12.12.2018 17:00:00 8,2 5,7 5 3 W 1017,5 6 0,0
12.12.2018 16:00:00 8,0 5,6 4 2 S 1018,1 10 -
12.12.2018 15:00:00 7,4 5,2 5 3 SE 1019,3 10 0,0
12.12.2018 14:00:00 6,8 4,8 2 1 W 1021,2 10 0,0
12.12.2018 13:00:00 6,0 4,3 4 2 W 1022,3 10 -
12.12.2018 12:00:00 4,5 3,8 2 1 NE 1023,7 6 0,0
12.12.2018 11:00:00 4,2 3,5 4 2 NW 1024,2 8 0,0
12.12.2018 10:00:00 3,0 2,7 2 1 SE 1024,5 12 -
12.12.2018 09:00:00 1,4 0,8 2 1 ESE 1024,9 6 0,0
12.12.2018 08:00:00 2,2 1,5 2 1 ESE 1024,8 - 0,0
12.12.2018 07:00:00 2,3 2,0 2 1 SSE 1024,9 12 -
12.12.2018 06:00:00 2,2 1,3 2 1 ENE 1025,3 8 0,0
12.12.2018 05:00:00 3,3 2,4 4 2 NW 1025,4 12 0,0
12.12.2018 04:00:00 3,3 2,9 4 2 SE 1025,5 13 -
12.12.2018 03:00:00 3,1 2,1 0 0 N 1025,8 12 0,0
12.12.2018 02:00:00 3,9 2,7 2 1 ESE 1024,8 12 0,0
12.12.2018 01:00:00 4,8 3,5 2 1 N 1025,5 10 -
12.12.2018 00:00:00 5,1 3,4 4 2 NNW 1025,5 10 0,0
11.12.2018 23:00:00 4,8 3,3 2 1 SSE 1026,0 10 0,0
11.12.2018 22:00:00 4,5 3,3 2 1 SSE 1025,8 12 -
11.12.2018 21:00:00 3,8 2,3 2 1 E 1026,1 11 0,0
11.12.2018 20:00:00 4,9 2,9 2 1 E 1025,6 11 0,0
11.12.2018 19:00:00 6,1 3,3 2 1 ENE 1025,1 11 -
11.12.2018 18:00:00 8,4 3,6 4 2 W 1023,8 16 0,0
11.12.2018 17:00:00 9,2 4,2 2 1 ESE 1023,2 20 0,0
11.12.2018 16:00:00 9,1 3,7 4 2 W 1023,2 20 -
11.12.2018 15:00:00 8,9 3,1 4 2 WNW 1023,5 20 0,0
11.12.2018 14:00:00 8,2 3,6 4 2 NW 1024,2 12 0,0
11.12.2018 13:00:00 4,5 3,0 5 3 SE 1026,1 9 -
11.12.2018 12:00:00 3,9 2,3 5 3 WNW 1026,6 8 0,0
11.12.2018 11:00:00 2,0 1,3 4 2 SSE 1027,4 11 0,0
11.12.2018 10:00:00 0,4 0,0 2 1 SSE 1027,6 13 -
11.12.2018 09:00:00 -0,1 -0,5 4 2 NNW 1027,8 7 0,0
11.12.2018 08:00:00 0,0 -0,6 0 0 N 1027,5 0,3 0,0
11.12.2018 07:00:00 0,6 0,2 4 2 NNW 1027,0 10 -
11.12.2018 06:00:00 0,8 0,2 2 1 E 1027,3 11 0,0
11.12.2018 05:00:00 1,0 0,4 2 1 E 1027,5 11 0,0
11.12.2018 04:00:00 1,2 0,6 2 1 E 1028,1 12 -
11.12.2018 03:00:00 1,7 1,0 2 1 ESE 1028,5 13 0,0
11.12.2018 02:00:00 1,9 1,0 2 1 E 1028,8 13 0,0
11.12.2018 01:00:00 2,5 1,6 0 0 N 1029,4 17 -

tt = Température de l'air
td = dewpoint
ff = Vitesse du vent
dd = Direction du vent
ppp = reduced air pressure
vv = visibility
rr = Quantités de précipitations

stations d'obs. à proximité